Regional Weather Roundup
Issued by NWS

Home | Current Version | Previous Version | Text Only | Print | Product List | Glossary Off
Versions: 1 2 3 4 5 6 7 8 9 10 11 12 13 14 15 16 17 18 19 20 21 22 23 24 25 26 27 28 29 30 31 32 33 34 35 36 37 38 39 40 41 42 43 44 45 46 47 48 49 50

000
ASUS45 KCYS 311810
RWRWY

WYOMING REGIONAL WEATHER ROUNDUP
NATIONAL WEATHER SERVICE CHEYENNE WY
1200 PM MDT THU JUL 31 2014

NOTE:  "FAIR" INDICATES FEW OR NO CLOUDS BELOW 12,000 FEET
WITH NO SIGNIFICANT WEATHER AND/OR OBSTRUCTIONS TO VISIBILITY.

WYZ001-311900-
YELLOWSTONE NATIONAL PARK

CITY           SKY/WX    TMP DP  RH WIND       PRES   REMARKS
LK YELLOWSTONE   N/A     64  48  56 VRB5      30.45F
6HR MIN TEMP:  39; 6HR MAX TEMP:  66;

W YELLOWSTONE  NOT AVBL

$$
WYZ002>013-054>058-071-098>099-311900-
NORTHERN WYOMING

CITY           SKY/WX    TMP DP  RH WIND       PRES   REMARKS
JACKSON        SUNNY     70  43  37 CALM      30.36F
CODY           SUNNY     81  41  24 NE10      30.24
GREYBULL       SUNNY     85  39  19 SE9       30.17F
6HR MIN TEMP:  57; 6HR MAX TEMP:  85;

WORLAND        SUNNY     85  37  18 SW6       30.18F
6HR MIN TEMP:  50; 6HR MAX TEMP:  85;

SHERIDAN       SUNNY     88  38  17 SE9       30.16F
6HR MIN TEMP:  48; 6HR MAX TEMP:  88;

BUFFALO        SUNNY     82  33  17 SE15G21   30.25F
6HR MIN TEMP:  60; 6HR MAX TEMP:  82;

GILLETTE       SUNNY     82  43  25 S10       30.22S
6HR MIN TEMP:  56; 6HR MAX TEMP:  82;

HULETT         FAIR      77  46  33 MISG      30.23
NEWCASTLE      FAIR      79  37  22 SE5       30.23

$$
WYZ014>020-022>026-101>103-311900-
CENTRAL WYOMING

CITY           SKY/WX    TMP DP  RH WIND       PRES   REMARKS
BIG PINEY      SUNNY     68  41  37 SW7       30.41S
6HR MIN TEMP:  40; 6HR MAX TEMP:  69;

PINEDALE       CLEAR     70  37  30 CALM      30.40F
DUBOIS         FAIR      72  36  26 SE12      30.38S
LANDER         SUNNY     78  39  24 MISG      30.29S
6HR MIN TEMP:  51; 6HR MAX TEMP:  79;

RIVERTON       SUNNY     74  48  39 E7        30.30F
6HR MIN TEMP:  53; 6HR MAX TEMP:  74;

CASPER         SUNNY     78  29  16 SE8       30.28F
6HR MIN TEMP:  45; 6HR MAX TEMP:  78;

DOUGLAS        SUNNY     78  40  25 SE9       30.28F
6HR MIN TEMP:  50; 6HR MAX TEMP:  79;


$$
WYZ021-027>030-104>119-311900-
SOUTHERN WYOMING

CITY           SKY/WX    TMP DP  RH WIND       PRES   REMARKS
EVANSTON       MOSUNNY   68  47  46 E17       30.38F
6HR MIN TEMP:  49; 6HR MAX TEMP:  68;

KEMMERER       PTCLDY   N/A N/A N/A E9        30.42S
FORT BRIDGER   FAIR      67  50  54 E7        30.42F
ROCK SPRINGS   SUNNY     70  45  40 VRB3      30.37F
6HR MIN TEMP:  47; 6HR MAX TEMP:  71;

DIXON          FAIR      70  50  49 W7        30.34F
RAWLINS        SUNNY     71  44  37 SE9       30.36F
6HR MIN TEMP:  45; 6HR MAX TEMP:  71;

SARATOGA       FAIR      68  45  42 N6        30.37F
LARAMIE        MOSUNNY   67  45  45 VRB3      30.38F
6HR MIN TEMP:  43; 6HR MAX TEMP:  68;

CHEYENNE       SUNNY     70  41  34 CALM      30.33F
6HR MIN TEMP:  50; 6HR MAX TEMP:  74;

TORRINGTON     SUNNY     79  49  34 S6        30.22F
6HR MIN TEMP:  53; 6HR MAX TEMP:  79;

PINE BLUFFS    FAIR      75  43  31 S6        30.28F

$$



USA.gov is the U.S. government's official web portal to all federal, state and local government web resources and services.